Location: *
(33.8649°S, 62.1526°E)
Time: 13:03:45
(UTC+00:00)

CZ-4B R/B - Pass Details

Date: 17 January 2021
Orbit: 703 x 802 km, 98.9° (Epoch: 02 March)

Event Time Altitude Azimuth Distance (km) Brightness Sun altitude
Exits shadow 21:50:46 59° 202° (SSW) 932 4.0 -29.7°
Drops below altitude 10° 21:55:01 10° 194° (SSW) 2,388 6.6 -29.3°
Sets 21:57:21 0° 193° (SSW) 3,314 7.4 -29.0°
